Regional Weather Roundup
Issued by NWS

Current Version | Previous Version | Text Only | Print | Product List | Glossary On
Versions: 1 2 3 4 5 6 7 8 9 10 11 12 13 14 15 16 17 18 19 20 21 22 23 24 25 26 27 28 29 30 31 32 33 34 35 36 37 38 39 40 41 42 43 44 45 46 47 48 49 50
000
ASUS46 KSTO 271615
RWRCA

NORTHERN AND CENTRAL CA REGIONAL WEATHER ROUNDUP
NATIONAL WEATHER SERVICE SACRAMENTO CA
900 AM PDT THU APR 27 2017

NOTE: FAIR INDICATES FEW OR NO CLOUDS BELOW 12,000 FEET WITH NO
SIGNIFICANT WEATHER AND/OR OBSTRUCTIONS TO VISIBILITY.

CAZ001-003-271700-
NORTHWEST AREA

CITY           SKY/WX    TMP DP  RH WIND       PRES   REMARKS
CRESCENT CITY  MOSUNNY   51  43  74 N6        30.21R
UKIAH          MOSUNNY   55  43  63 VRB3      30.10S
$$

CAZ006-505>513-271700-
BAY AREA

CITY           SKY/WX    TMP DP  RH WIND       PRES   REMARKS
SANTA ROSA     PTSUNNY   58  44  60 N9        30.04F
SAN RAFAEL     N/A       53  MM  MM MISG
NAPA           MOSUNNY   57  51  80 VRB3      30.05F
CONCORD        MOSUNNY   59  51  75 CALM      30.06R
OAKLAND CITY   N/A      MM  MM  MM MISG
OAKLAND        PTSUNNY   60  51  72 N6        30.07R
SAN FRAN CITY  N/A       57  MM  69 MISG
SAN FRAN ARPT  PTSUNNY   59  49  69 N3        30.07R
LIVERMORE      MOSUNNY   57  50  77 VRB5      30.06R
HAYWARD        MOSUNNY   61  49  64 N3        30.06R
REDWOOD CITY   N/A       58  MM  72 MISG
MOFFETT ARPT   MOSUNNY   57  50  77 N5        30.08R
SAN JOSE ARPT  PTSUNNY   58  49  72 CALM      30.07R
$$
CAZ034-037-514>518-271700-
CENTRAL COAST

CITY           SKY/WX    TMP DP  RH WIND       PRES   REMARKS
WATSONVILLE    CLOUDY    56  53  90 SE3       30.05S FOG
SALINAS        MOSUNNY   57  50  77 W7        30.04F
MONTEREY       CLOUDY    55  50  83 W9        30.06S
SAN LUIS OBISP MOSUNNY   63  51  65 NW18      29.96F
SANTA MARIA    PTSUNNY   58  53  84 NW16      29.95F
$$
CAZ015-016-271700-
NORTHERN SACRAMENTO VALLEY

CITY           SKY/WX    TMP DP  RH WIND       PRES   REMARKS
REDDING        MOSUNNY   58  41  53 N5        30.04F
RED BLUFF      SUNNY     59  43  55 N13       30.06S
OROVILLE       CLOUDY    59  54  83 N7        30.06R
$$
CAZ016>018-271700-
SOUTHERN SACRAMENTO VALLEY

CITY           SKY/WX    TMP DP  RH WIND       PRES   REMARKS
AUBURN         PTSUNNY   57  54  88 N5        30.03R
BEALE AFB      PTSUNNY   58  54  86 NW7       30.03R
LINCOLN        CLOUDY    57  54  88 N6        30.03S
MARYSVILLE     MOSUNNY   58  49  72 MISG      30.04S
SAC INTL ARPT  PTSUNNY   57  56  96 NW8       30.03S
MATHER AIRPORT PTSUNNY   59  55  88 NW6       30.02
DOWNTOWN SAC   N/A       61  MM  MM MISG
SAC EXEC ARPT  PTSUNNY   58  56  93 NW8       30.03R
VACAVILLE      MOSUNNY   63  44  50 N10G18    30.05R
TRAVIS AFB     MOSUNNY   60  52  72 NW3       30.03R
$$
CAZ019>021-271700-
SAN JOAQUIN VALLEY

CITY           SKY/WX    TMP DP  RH WIND       PRES   REMARKS
STOCKTON       CLOUDY    57  54  89 NW15G22   30.03R
MODESTO        PTSUNNY   62  51  67 NW15      30.00S
MERCED         MOSUNNY   60  50  69 NW14      29.98S
LEMOORE        MOSUNNY   64  48  56 N20       29.98S
FRESNO         CLOUDY    58  53  84 NW13      29.98R
HANFORD        SUNNY     62  53  72 N14G23    29.97S
PORTERVILLE      N/A     60  54  80 NW10      29.98R
BAKERSFIELD    CLOUDY    63  52  67 NW15      29.97S
$$
CAZ011-012-071-271700-
NORTHERN MOUNTAINS

CITY           SKY/WX    TMP DP  RH WIND       PRES   REMARKS
YREKA          MOSUNNY   44  30  57 N3        30.15S
MOUNT SHASTA   MOSUNNY   44  26  49 MISG      30.08R
ALTURAS        MOSUNNY   38  27  64 NW9       30.06F WCI  31
$$
CAZ011-012-071-271700-
SIERRA NEVADA MTNS

CITY           SKY/WX    TMP DP  RH WIND       PRES   REMARKS
BLUE CANYON    MOSUNNY   44  35  70 NW5       30.06R
TRUCKEE        PTSUNNY   39  34  81 N3        30.06R
TAHOE VLY ARPT MOSUNNY   45  19  35 N8        30.03S
MAMMOTH LAKES  FAIR      54  14  20 W12       29.99S
$$



USA.gov is the U.S. government's official web portal to all federal, state and local government web resources and services.